Temp
19 17 16 18 18 20 21 21 21 22 24 24 20 19 19 18 18 20 20 21 21 21 21 21 21 22 21 21 20 20 21 20 19 19 19 19 19 19 19 18 19 19 18 18
17 17 18 20 21 21 21 21 20 21 23 21 18 19 19 19 18 19 20 20 21 21 21 21 22 21 22 21 20 20 20 20 19 20 20 20 19 19 19 19 19 18 18 19
17 20 21 21 21 21 20 19 20 21 22 19 19 19 19 19 18 19 19 20 21 21 21 21 22 22 22 21 21 21 21 21 20 20 19 19 19 19 19 19 19 19 18 18
19 20 21 21 20 20 19 20 22 22 21 21 21 19 19 19 18 19 19 19 20 21 22 21 22 22 22 22 21 21 21 21 20 20 20 20 19 19 19 19 19 19 19 19
19 21 20 20 21 20 20 21 21 22 21 21 22 19 19 18 18 18 19 20 20 21 22 21 22 22 22 22 21 22 22 21 21 21 20 20 20 20 20 19 19 19 19 19
20 22 21 20 22 21 23 22 19 16 16 18 20 20 19 16 19 19 19 19 20 20 21 21 21 22 22 22 22 22 22 22 21 21 21 20 20 20 19 19 19 19 19 19
19 20 19 20 22 21 19 17 16 18 17 18 19 19 20 19 19 20 20 19 20 21 21 21 21 22 22 22 22 22 22 22 21 21 21 21 20 20 20 20 20 19 19 20
16 18 18 19 19 20 21 18 16 19 16 18 17 20 22 22 23 23 21 21 20 20 21 21 22 22 22 23 22 22 22 22 22 21 21 21 20 20 20 20 20 20 20 20
15 17 17 19 18 18 19 16 18 14 15 17 18 20 22 20 20 20 21 21 20 20 20 21 22 22 22 23 23 23 22 22 22 22 22 22 21 20 20 20 20 20 20 20
15 17 15 17 18 17 15 16 17 13 16 19 17 18 17 18 18 18 19 20 20 20 20 21 21 22 23 23 23 23 23 23 22 22 22 22 22 21 20 20 20 20 20 20
13 13 15 15 14 14 13 12 11 12 13 14 16 16 18 17 17 17 17 18 20 21 20 22 22 22 22 22 22 23 22 22 23 22 22 22 22 22 21 21 20 20 20 20
12 8 11 13 12 15 14 12 10 10 13 11 13 14 16 17 18 18 17 18 20 20 20 22 22 21 21 22 22 23 22 22 22 23 22 22 22 22 22 22 21 20 20 20
13 9 11 13 12 11 12 12 12 9 8 10 11 14 17 16 16 17 16 16 19 20 20 20 20 19 19 20 20 19 20 21 22 22 22 22 22 22 22 22 22 21 20 20
12 6 9 10 11 10 11 12 12 10 9 10 11 12 13 13 13 14 15 15 16 18 18 18 18 18 18 19 19 19 18 19 21 21 21 22 22 22 22 22 22 22 21 20
8 8 10 10 11 11 11 11 12 12 13 12 13 12 10 11 12 12 13 14 14 15 17 18 18 17 19 19 19 19 19 19 19 19 21 21 22 22 22 22 22 22 22 21
7 7 9 9 10 10 11 11 12 13 13 13 13 13 10 11 12 11 11 13 13 13 14 14 16 16 17 19 20 20 20 19 18 19 20 21 21 22 22 22 22 22 21 22
7 6 6 8 8 9 9 11 12 12 11 12 11 10 10 10 11 10 11 12 12 12 12 14 14 15 14 15 16 17 19 19 20 19 19 19 19 20 21 21 22 22 22 21
6 5 4 6 7 7 9 11 12 10 10 10 10 10 9 9 11 10 11 11 11 12 12 12 13 14 14 15 16 17 18 19 19 19 17 17 18 19 20 20 21 21 21 21
6 4 4 5 5 7 10 10 9 10 8 8 8 8 8 8 10 11 10 10 11 11 12 12 12 14 14 15 15 16 16 16 18 18 18 18 18 19 19 19 20 20 20 21
4 3 4 4 4 6 8 7 7 8 7 7 7 6 6 7 9 9 10 10 10 11 12 12 12 13 14 15 15 15 15 16 16 16 17 18 19 19 18 18 19 19 20 21
2 4 4 4 3 6 5 5 7 8 7 6 5 5 5 4 6 6 7 9 9 10 10 12 12 12 12 14 16 15 14 15 15 16 17 17 17 17 18 18 19 20 19 20
3 4 3 4 3 5 5 6 7 4 4 4 4 3 3 4 5 7 6 7 9 9 10 10 11 12 12 12 16 15 15 14 15 15 16 17 17 17 18 20 21 21 21 20
3 3 1 4 4 4 4 5 4 3 3 3 2 2 2 3 3 6 7 6 7 8 9 9 9 12 13 12 14 16 15 15 16 15 16 17 18 19 20 21 22 21 21 19
3 4 2 2 4 4 4 4 3 3 3 3 2 2 2 3 3 4 5 6 6 7 8 8 10 9 11 13 13 13 15 15 15 16 17 17 17 19 20 21 22 22 22 21
2 3 1 1 3 4 5 4 3 3 3 2 2 2 2 2 2 3 4 5 5 6 7 7 7 8 10 11 13 13 15 13 14 16 16 17 16 17 20 20 22 22 23 23
3 2 1 1 5 5 5 4 4 3 3 3 2 2 2 2 2 3 4 4 5 5 7 7 7 8 8 10 11 13 16 18 15 15 15 16 17 17 18 19 20 21 23 23
Height
1488 1496 1504 1498 1497 1496 1497 1501 1505 1499 1491 1493 1495 1496 1499 1505 1511 1511 1512 1515 1517 1519 1528 1535 1539 1543 1548 1553 1558 1561 1564 1568 1571 1575 1578 1581 1583 1585 1588 1590 1592 1593 1593 1594
1492 1499 1491 1489 1491 1495 1497 1500 1507 1497 1490 1493 1500 1500 1501 1504 1508 1510 1512 1513 1515 1520 1523 1527 1534 1538 1542 1548 1553 1558 1562 1565 1569 1573 1577 1580 1583 1586 1588 1591 1592 1593 1593 1594
1492 1487 1485 1489 1492 1496 1498 1501 1505 1506 1494 1497 1499 1509 1510 1506 1509 1509 1510 1513 1517 1519 1520 1522 1527 1533 1539 1543 1547 1553 1558 1562 1567 1571 1575 1578 1582 1585 1587 1589 1591 1592 1594 1595
1486 1479 1483 1488 1492 1494 1506 1490 1494 1496 1503 1515 1497 1525 1512 1506 1505 1504 1505 1508 1511 1516 1520 1520 1523 1525 1533 1539 1544 1549 1555 1560 1564 1568 1571 1575 1579 1583 1586 1589 1590 1592 1593 1594
1487 1480 1485 1489 1487 1487 1492 1485 1490 1494 1500 1504 1502 1518 1510 1505 1506 1497 1499 1502 1508 1512 1517 1519 1521 1524 1527 1535 1541 1546 1551 1557 1560 1563 1568 1572 1576 1582 1585 1588 1590 1591 1592 1593
1479 1475 1477 1479 1476 1479 1477 1485 1494 1504 1512 1529 1507 1512 1516 1512 1494 1490 1493 1495 1499 1503 1508 1516 1520 1524 1527 1532 1538 1543 1548 1553 1558 1561 1565 1569 1573 1578 1582 1585 1588 1590 1591 1593
1483 1481 1478 1477 1478 1477 1483 1497 1524 1524 1531 1532 1507 1513 1505 1488 1482 1479 1478 1481 1485 1494 1502 1509 1512 1516 1522 1526 1531 1538 1543 1549 1554 1558 1561 1565 1569 1575 1579 1583 1586 1589 1590 1591
1499 1502 1488 1483 1483 1485 1482 1491 1521 1526 1537 1526 1515 1518 1501 1486 1480 1471 1475 1479 1486 1489 1491 1498 1504 1509 1514 1519 1526 1531 1538 1543 1549 1553 1557 1562 1567 1572 1576 1580 1584 1587 1589 1591
1502 1499 1491 1485 1485 1484 1488 1502 1493 1519 1523 1522 1520 1503 1491 1488 1483 1476 1472 1476 1476 1479 1487 1490 1497 1502 1507 1513 1519 1524 1531 1539 1543 1548 1552 1558 1563 1568 1573 1577 1581 1583 1587 1589
1498 1502 1496 1491 1486 1489 1493 1495 1508 1517 1531 1528 1527 1523 1526 1505 1496 1490 1482 1479 1476 1479 1484 1490 1494 1497 1501 1505 1512 1519 1524 1531 1538 1543 1549 1553 1558 1563 1568 1574 1577 1580 1583 1586
1499 1505 1504 1498 1508 1510 1508 1517 1519 1519 1527 1536 1539 1537 1514 1511 1502 1494 1489 1479 1474 1474 1478 1481 1489 1495 1500 1506 1512 1515 1520 1525 1530 1538 1543 1548 1553 1558 1563 1568 1572 1576 1580 1583
1504 1518 1526 1519 1515 1510 1512 1524 1526 1539 1539 1538 1534 1540 1514 1508 1501 1494 1486 1477 1473 1473 1477 1481 1487 1494 1496 1502 1507 1509 1514 1520 1525 1530 1537 1543 1548 1553 1557 1562 1566 1571 1575 1579
1505 1524 1531 1529 1523 1518 1524 1527 1527 1536 1544 1549 1549 1533 1511 1506 1501 1497 1491 1482 1471 1474 1478 1484 1488 1492 1498 1500 1503 1508 1513 1516 1522 1528 1532 1537 1542 1546 1550 1555 1560 1565 1570 1574
1507 1531 1532 1541 1536 1535 1535 1532 1531 1536 1549 1548 1540 1532 1523 1513 1507 1499 1496 1491 1484 1482 1485 1488 1491 1495 1498 1499 1502 1506 1510 1514 1519 1523 1527 1531 1535 1540 1544 1549 1553 1558 1563 1567
1516 1535 1532 1534 1532 1531 1532 1534 1533 1536 1533 1541 1532 1532 1530 1524 1517 1510 1505 1498 1495 1494 1492 1492 1494 1495 1497 1498 1501 1505 1507 1509 1513 1518 1521 1523 1528 1533 1538 1542 1546 1550 1555 1559
1522 1536 1531 1536 1530 1528 1530 1530 1530 1528 1529 1529 1528 1528 1529 1525 1520 1510 1508 1505 1501 1500 1497 1496 1496 1497 1495 1493 1495 1499 1502 1503 1506 1509 1512 1517 1521 1525 1529 1534 1538 1543 1547 1551
1529 1535 1541 1541 1536 1530 1535 1527 1526 1527 1526 1526 1534 1531 1530 1526 1524 1519 1512 1508 1505 1502 1501 1495 1495 1496 1495 1494 1495 1495 1495 1496 1498 1501 1506 1510 1515 1518 1523 1527 1531 1535 1539 1543
1532 1537 1546 1549 1542 1547 1533 1525 1525 1529 1529 1528 1529 1531 1531 1528 1526 1522 1517 1513 1509 1507 1504 1501 1498 1496 1495 1495 1492 1491 1490 1490 1493 1495 1499 1505 1507 1509 1515 1519 1522 1526 1530 1534
1528 1537 1549 1551 1555 1541 1527 1525 1530 1529 1535 1531 1530 1531 1527 1527 1521 1519 1518 1515 1513 1510 1508 1505 1501 1497 1495 1494 1491 1487 1487 1487 1488 1492 1495 1500 1501 1504 1507 1510 1513 1518 1522 1525
1530 1534 1543 1554 1559 1547 1529 1531 1529 1527 1533 1529 1530 1531 1529 1526 1524 1519 1516 1514 1512 1509 1506 1504 1501 1497 1494 1490 1488 1486 1485 1485 1486 1486 1490 1494 1496 1497 1499 1501 1505 1509 1513 1517
1545 1541 1546 1550 1553 1536 1533 1530 1526 1531 1537 1532 1533 1532 1530 1530 1528 1524 1518 1513 1512 1509 1504 1500 1498 1496 1494 1491 1488 1486 1486 1484 1483 1483 1485 1488 1490 1494 1496 1497 1499 1500 1505 1509
1543 1543 1548 1544 1549 1541 1532 1528 1529 1531 1529 1531 1532 1531 1529 1525 1524 1518 1518 1514 1509 1507 1505 1501 1497 1493 1493 1490 1485 1482 1479 1480 1482 1481 1484 1484 1485 1487 1489 1490 1490 1492 1495 1498
1546 1540 1546 1540 1536 1529 1530 1530 1529 1529 1527 1527 1527 1527 1525 1519 1518 1514 1508 1509 1506 1503 1501 1499 1495 1491 1490 1485 1482 1481 1479 1477 1478 1480 1480 1478 1477 1479 1482 1482 1483 1483 1485 1489
1536 1536 1539 1539 1527 1525 1526 1526 1526 1526 1525 1525 1525 1522 1520 1515 1512 1512 1506 1503 1500 1498 1496 1495 1492 1488 1485 1481 1478 1476 1476 1474 1473 1471 1469 1469 1468 1470 1473 1475 1475 1475 1476 1480
1537 1536 1536 1534 1524 1523 1522 1522 1524 1524 1523 1521 1520 1518 1515 1510 1505 1505 1500 1497 1494 1492 1490 1489 1487 1483 1477 1475 1473 1470 1468 1469 1468 1467 1467 1464 1463 1462 1462 1463 1461 1466 1468 1471
1528 1527 1532 1526 1515 1517 1519 1520 1521 1522 1520 1518 1514 1510 1507 1503 1498 1497 1493 1490 1488 1486 1485 1482 1481 1479 1476 1473 1471 1466 1461 1460 1459 1459 1458 1457 1454 1453 1451 1452 1453 1458 1460 1463
Wind_Speed
6 4 5 7 7 6 2 3 3 3 5 4 10 8 16 15 11 17 23 29 33 38 39 31 24 38 38 38 36 32 26 24 25 23 22 21 17 15 14 11 9 9 10 10
5 4 8 4 3 5 3 5 3 6 2 4 5 1 9 14 12 13 21 29 33 35 39 29 27 39 42 39 40 34 29 28 28 26 25 20 17 17 15 12 8 8 9 13
5 5 4 4 3 3 3 6 3 5 3 6 9 5 6 9 11 14 21 24 29 33 38 32 33 39 42 43 42 37 33 28 29 28 25 21 18 18 17 14 12 9 11 9
4 4 5 5 5 6 5 7 5 4 2 2 3 2 6 7 8 16 22 30 29 32 36 35 36 40 45 44 42 37 34 31 25 28 31 27 23 21 18 15 12 9 12 11
6 2 5 5 9 7 9 6 6 4 2 2 1 4 4 11 15 17 23 29 29 30 30 32 35 36 47 49 44 39 34 31 25 23 34 30 27 24 19 16 15 13 12 13
5 3 5 8 7 9 7 3 5 5 4 2 5 5 4 5 15 13 20 29 33 41 38 30 33 36 45 47 47 44 38 34 29 24 32 32 32 28 23 21 19 17 12 13
4 2 5 6 0 3 5 6 2 2 2 5 2 4 7 10 12 13 23 35 41 45 40 37 36 41 43 49 51 47 42 38 33 27 28 30 33 30 27 23 20 21 17 14
3 2 7 8 2 1 2 7 5 5 4 4 1 5 1 3 13 24 24 30 30 36 43 45 38 43 44 45 52 50 47 42 37 33 27 29 34 33 30 25 22 22 20 16
2 1 4 2 6 1 3 5 1 7 4 3 1 5 4 12 17 20 14 23 33 39 38 47 44 43 45 47 49 53 50 46 40 36 28 28 33 37 34 29 24 21 21 20
1 2 2 5 7 10 7 3 4 4 4 3 4 5 6 14 15 13 14 13 27 32 34 40 45 45 48 48 47 50 51 49 45 39 35 27 29 34 37 34 30 26 23 26
2 3 5 3 7 6 8 6 5 4 4 5 3 2 9 8 7 12 13 19 22 34 37 44 47 49 45 46 47 49 54 54 49 45 39 34 27 31 34 36 35 31 23 24
4 5 4 4 6 6 15 5 4 4 6 2 1 4 6 13 12 15 21 29 14 29 33 39 39 41 44 46 48 51 54 55 54 46 41 38 32 28 33 36 38 36 31 25
4 4 3 4 6 8 7 6 5 5 3 2 1 3 11 21 20 21 25 32 25 17 24 24 28 28 29 36 42 43 48 53 52 50 46 42 39 34 30 34 37 39 37 32
7 4 4 5 3 3 3 5 6 5 4 3 4 5 13 18 20 25 27 30 27 11 4 6 14 12 17 23 16 31 37 42 44 48 48 45 41 39 34 31 35 39 41 40
5 4 3 3 3 3 3 3 5 4 3 4 6 6 6 12 15 22 22 28 28 26 20 13 2 7 10 15 13 9 22 30 36 41 43 44 43 41 37 34 33 36 41 43
5 2 2 4 4 5 1 3 5 6 4 1 3 3 5 14 20 28 28 24 26 27 25 24 22 8 9 9 16 20 18 28 29 34 38 39 39 39 42 38 35 35 37 42
3 3 3 3 5 6 5 4 4 2 1 4 5 1 5 5 13 19 25 28 27 23 25 24 24 20 17 8 0 14 22 19 21 32 35 38 38 38 38 38 38 38 38 37
3 3 2 1 4 2 5 3 3 7 3 5 5 4 7 8 0 14 21 24 24 21 21 23 22 20 18 15 8 5 10 23 24 26 31 35 35 35 33 35 34 35 39 40
3 4 2 4 3 5 5 3 4 1 4 4 2 5 14 18 9 4 15 18 19 17 18 20 19 20 19 17 15 11 5 8 22 26 27 23 27 31 30 32 29 32 36 37
6 6 4 3 4 4 4 5 8 4 4 3 6 5 12 18 2 2 19 15 18 17 18 21 21 19 19 18 18 14 9 4 11 14 15 25 26 29 34 33 30 28 33 35
3 3 2 2 3 5 3 14 8 6 2 4 9 9 13 4 8 21 19 17 15 16 19 21 23 22 21 18 16 15 12 7 6 13 13 22 25 20 23 24 26 31 34 35
3 3 2 2 1 6 7 4 1 2 3 7 9 14 19 22 19 23 20 16 17 19 19 22 24 22 22 18 15 15 17 15 10 10 14 17 28 26 22 19 20 26 32 36
2 4 3 6 4 2 2 6 7 8 13 13 15 21 21 25 20 24 27 25 22 20 20 21 23 22 19 18 16 16 18 18 17 14 12 17 19 25 23 24 24 26 30 35
2 4 1 3 3 8 16 17 14 11 14 16 17 19 21 27 28 23 30 29 28 26 23 23 25 24 20 18 15 20 18 21 20 22 21 18 18 23 23 24 25 25 29 35
5 9 4 5 11 10 4 4 8 15 15 16 18 20 23 26 31 27 31 32 31 30 26 23 23 25 24 19 18 19 28 25 25 25 24 23 21 17 21 22 24 29 31 35
13 7 5 6 11 5 6 3 5 8 12 14 19 22 25 24 27 27 30 32 32 32 28 25 22 24 23 20 21 21 23 31 32 30 26 27 27 21 18 20 23 28 28 29
Wind_Direction
187 119 192 206 187 190 186 218 274 237 246 243 215 197 183 184 201 194 189 193 189 193 194 200 206 207 203 198 192 192 188 186 188 196 196 197 192 190 190 193 193 193 195 185
52 196 214 225 164 192 216 269 307 288 291 102 43 131 148 180 196 214 200 198 196 194 198 200 206 203 203 200 195 195 194 193 195 204 202 202 200 199 197 194 200 197 196 196
143 211 175 170 258 239 217 237 201 212 348 46 109 98 187 209 222 235 229 218 209 202 195 198 198 200 200 198 197 198 198 201 203 205 200 201 205 206 204 203 210 216 196 195
200 257 190 211 225 153 251 215 224 238 132 256 173 152 214 223 222 232 225 223 216 209 204 196 196 198 200 201 202 200 202 203 207 209 208 209 213 211 213 211 202 204 204 199
240 232 183 199 224 165 234 173 195 192 199 86 266 90 237 190 231 220 219 215 214 214 212 203 202 205 201 203 201 205 208 207 210 216 210 212 217 224 225 218 213 214 216 209
225 242 154 204 228 188 237 136 65 55 104 70 250 123 278 193 224 220 215 217 212 217 212 212 207 211 210 206 205 207 208 212 212 213 212 215 221 223 220 218 223 221 221 213
347 11 330 37 218 349 95 76 337 33 53 193 214 71 234 235 254 228 207 206 212 214 218 211 206 210 211 211 209 211 212 214 214 213 214 217 214 219 217 221 224 227 223 215
127 360 12 325 34 209 284 154 153 187 166 182 115 185 226 287 311 266 226 222 220 205 214 207 205 211 213 215 214 213 215 217 216 216 215 217 212 215 217 219 225 230 230 229
117 159 336 91 64 43 297 43 249 101 11 79 238 310 29 353 14 353 247 206 210 217 211 213 204 212 214 216 218 218 219 220 219 220 216 216 215 216 220 224 228 232 235 239
94 99 7 310 26 30 75 313 51 12 117 149 335 86 336 343 345 0 348 238 227 217 212 218 211 215 217 219 220 222 223 222 223 222 222 221 221 221 221 224 229 233 240 238
65 59 308 41 23 2 19 15 9 109 82 141 139 10 350 318 330 349 348 341 256 224 215 218 217 218 225 223 222 225 223 222 221 224 225 223 225 224 224 224 227 231 235 235
345 124 70 22 321 111 81 71 82 89 331 15 129 206 349 336 327 357 356 351 341 226 220 218 224 220 218 221 224 227 226 224 226 224 227 229 227 230 228 228 226 228 230 236
330 25 55 4 347 11 50 8 58 101 76 3 57 248 341 341 346 3 8 356 342 230 218 210 204 209 210 213 221 222 227 228 228 229 227 230 232 230 233 232 230 228 229 232
76 60 112 162 181 228 30 46 50 93 76 291 254 301 343 345 348 353 8 14 35 63 137 162 176 174 195 211 225 228 225 230 233 235 233 232 234 237 236 239 235 232 231 233
82 93 102 141 185 141 206 89 76 100 179 153 276 343 329 341 346 347 4 25 26 30 45 46 252 266 250 223 215 243 231 235 234 234 235 237 238 238 240 239 241 239 233 234
2 146 95 346 333 0 310 243 172 181 147 223 254 260 327 350 360 9 4 15 26 18 27 39 43 26 6 280 248 257 258 233 230 234 236 238 239 243 240 241 242 241 241 237
52 106 63 298 327 352 13 351 83 127 79 170 199 229 353 340 7 9 7 17 17 24 16 23 21 23 30 38 300 222 221 225 239 231 238 240 241 241 245 246 247 245 245 243
116 87 74 199 13 319 238 280 97 115 84 69 87 356 337 323 24 28 19 11 12 14 10 6 8 10 15 6 348 325 256 233 226 227 226 234 239 244 245 248 251 252 249 247
162 117 113 146 203 302 283 21 66 7 222 80 109 341 326 335 262 265 8 7 357 355 353 358 360 356 356 357 6 7 347 226 221 219 220 230 235 240 242 244 251 256 255 251
76 73 118 130 148 233 237 311 337 312 247 98 68 20 337 349 327 284 343 343 339 336 339 343 349 353 352 354 357 5 358 238 209 214 218 228 237 235 236 242 247 254 259 260
24 27 132 198 219 283 1 308 320 152 245 15 357 335 325 308 283 304 320 317 319 324 327 324 329 337 338 344 342 353 353 346 285 247 240 225 214 214 226 236 251 255 255 257
153 147 198 162 257 268 4 329 294 344 325 319 319 311 308 302 299 290 299 303 301 308 312 317 313 319 323 331 328 339 334 337 324 298 251 249 236 239 247 257 268 260 255 256
232 184 188 180 224 193 331 262 278 293 303 314 313 309 304 300 295 287 292 296 294 293 301 306 307 303 309 320 320 307 321 325 320 313 295 263 249 246 256 264 266 264 256 250
250 168 241 18 263 239 298 295 271 296 307 303 303 307 301 289 290 283 285 282 284 285 286 295 294 291 292 300 304 308 308 312 319 319 315 302 278 258 255 255 251 258 257 255
210 159 199 262 276 279 287 329 287 304 301 293 304 304 310 295 285 283 280 277 278 278 279 284 283 282 285 292 295 296 298 309 306 308 313 312 304 283 256 265 250 247 258 258
190 192 185 221 204 188 239 264 326 343 338 332 319 307 312 301 288 284 275 275 276 275 267 274 278 270 277 283 287 292 276 282 301 302 307 311 308 296 281 280 264 246 251 261